<?xml version="1.0"?>
<gpx xmlns="http://www.topografix.com/GPX/1/1" xmlns:xsi="http://www.w3.org/2001/XMLSchema-instance" version="1.1" creator="GPX RubyGem 1.0.0 -- http://dougfales.github.io/gpx/" xsi:schemaLocation="http://www.topografix.com/GPX/1/1 http://www.topografix.com/GPX/1/1/gpx.xsd">
  <metadata>
    <name/>
    <time>2026-05-08T00:28:13+00:00</time>
    <bound minlat="90.0" minlon="180.0" maxlat="-90.0" maxlon="-180.0"/>
  </metadata>
  <trk>
    <name/>
    <trkseg>
      <trkpt lat="46.978373" lon="8.33126">
        <time>1970-01-01T00:00:00+00:00</time>
        <ele>439.0</ele>
      </trkpt>
      <trkpt lat="46.978358" lon="8.331259">
        <time>1970-01-01T00:00:00+00:00</time>
        <ele>439.0</ele>
      </trkpt>
      <trkpt lat="46.977776" lon="8.330959">
        <time>1970-01-01T00:00:00+00:00</time>
        <ele>436.0</ele>
      </trkpt>
      <trkpt lat="46.977623" lon="8.330907">
        <time>1970-01-01T00:00:00+00:00</time>
        <ele>434.0</ele>
      </trkpt>
      <trkpt lat="46.977627" lon="8.330831">
        <time>1970-01-01T00:00:00+00:00</time>
        <ele>436.0</ele>
      </trkpt>
      <trkpt lat="46.977635" lon="8.330698">
        <time>1970-01-01T00:00:00+00:00</time>
        <ele>438.0</ele>
      </trkpt>
      <trkpt lat="46.977669" lon="8.330514">
        <time>1970-01-01T00:00:00+00:00</time>
        <ele>442.0</ele>
      </trkpt>
      <trkpt lat="46.977855" lon="8.330434">
        <time>1970-01-01T00:00:00+00:00</time>
        <ele>445.0</ele>
      </trkpt>
      <trkpt lat="46.97811" lon="8.33049">
        <time>1970-01-01T00:00:00+00:00</time>
        <ele>450.0</ele>
      </trkpt>
      <trkpt lat="46.97826" lon="8.330637">
        <time>1970-01-01T00:00:00+00:00</time>
        <ele>450.0</ele>
      </trkpt>
      <trkpt lat="46.978389" lon="8.330808">
        <time>1970-01-01T00:00:00+00:00</time>
        <ele>447.0</ele>
      </trkpt>
      <trkpt lat="46.978525" lon="8.330844">
        <time>1970-01-01T00:00:00+00:00</time>
        <ele>447.0</ele>
      </trkpt>
      <trkpt lat="46.978579" lon="8.330818">
        <time>1970-01-01T00:00:00+00:00</time>
        <ele>447.0</ele>
      </trkpt>
      <trkpt lat="46.978619" lon="8.330741">
        <time>1970-01-01T00:00:00+00:00</time>
        <ele>449.0</ele>
      </trkpt>
      <trkpt lat="46.978606" lon="8.330706">
        <time>1970-01-01T00:00:00+00:00</time>
        <ele>451.0</ele>
      </trkpt>
      <trkpt lat="46.978484" lon="8.330717">
        <time>1970-01-01T00:00:00+00:00</time>
        <ele>451.0</ele>
      </trkpt>
      <trkpt lat="46.978458" lon="8.330692">
        <time>1970-01-01T00:00:00+00:00</time>
        <ele>452.0</ele>
      </trkpt>
      <trkpt lat="46.978449" lon="8.330533">
        <time>1970-01-01T00:00:00+00:00</time>
        <ele>457.0</ele>
      </trkpt>
      <trkpt lat="46.978395" lon="8.330355">
        <time>1970-01-01T00:00:00+00:00</time>
        <ele>463.0</ele>
      </trkpt>
      <trkpt lat="46.978471" lon="8.330376">
        <time>1970-01-01T00:00:00+00:00</time>
        <ele>463.0</ele>
      </trkpt>
      <trkpt lat="46.978442" lon="8.330229">
        <time>1970-01-01T00:00:00+00:00</time>
        <ele>468.0</ele>
      </trkpt>
      <trkpt lat="46.978558" lon="8.330246">
        <time>1970-01-01T00:00:00+00:00</time>
        <ele>469.0</ele>
      </trkpt>
      <trkpt lat="46.978538" lon="8.329999">
        <time>1970-01-01T00:00:00+00:00</time>
        <ele>480.0</ele>
      </trkpt>
      <trkpt lat="46.978483" lon="8.329831">
        <time>1970-01-01T00:00:00+00:00</time>
        <ele>489.0</ele>
      </trkpt>
      <trkpt lat="46.978557" lon="8.329867">
        <time>1970-01-01T00:00:00+00:00</time>
        <ele>487.0</ele>
      </trkpt>
      <trkpt lat="46.978621" lon="8.329863">
        <time>1970-01-01T00:00:00+00:00</time>
        <ele>488.0</ele>
      </trkpt>
      <trkpt lat="46.978623" lon="8.329777">
        <time>1970-01-01T00:00:00+00:00</time>
        <ele>493.0</ele>
      </trkpt>
      <trkpt lat="46.978581" lon="8.329653">
        <time>1970-01-01T00:00:00+00:00</time>
        <ele>500.0</ele>
      </trkpt>
      <trkpt lat="46.978383" lon="8.329271">
        <time>1970-01-01T00:00:00+00:00</time>
        <ele>512.0</ele>
      </trkpt>
      <trkpt lat="46.978359" lon="8.329074">
        <time>1970-01-01T00:00:00+00:00</time>
        <ele>520.0</ele>
      </trkpt>
      <trkpt lat="46.978412" lon="8.329029">
        <time>1970-01-01T00:00:00+00:00</time>
        <ele>522.0</ele>
      </trkpt>
      <trkpt lat="46.978394" lon="8.328945">
        <time>1970-01-01T00:00:00+00:00</time>
        <ele>525.0</ele>
      </trkpt>
      <trkpt lat="46.978293" lon="8.328955">
        <time>1970-01-01T00:00:00+00:00</time>
        <ele>525.0</ele>
      </trkpt>
      <trkpt lat="46.978013" lon="8.328906">
        <time>1970-01-01T00:00:00+00:00</time>
        <ele>528.0</ele>
      </trkpt>
      <trkpt lat="46.977943" lon="8.328924">
        <time>1970-01-01T00:00:00+00:00</time>
        <ele>527.0</ele>
      </trkpt>
      <trkpt lat="46.977758" lon="8.328805">
        <time>1970-01-01T00:00:00+00:00</time>
        <ele>538.0</ele>
      </trkpt>
      <trkpt lat="46.977303" lon="8.328886">
        <time>1970-01-01T00:00:00+00:00</time>
        <ele>551.0</ele>
      </trkpt>
      <trkpt lat="46.977272" lon="8.328874">
        <time>1970-01-01T00:00:00+00:00</time>
        <ele>552.0</ele>
      </trkpt>
      <trkpt lat="46.977334" lon="8.328781">
        <time>1970-01-01T00:00:00+00:00</time>
        <ele>556.0</ele>
      </trkpt>
      <trkpt lat="46.977334" lon="8.328781">
        <time>1970-01-01T00:00:00+00:00</time>
        <ele>556.0</ele>
      </trkpt>
      <trkpt lat="46.977272" lon="8.328874">
        <time>1970-01-01T00:00:00+00:00</time>
        <ele>552.0</ele>
      </trkpt>
      <trkpt lat="46.977303" lon="8.328886">
        <time>1970-01-01T00:00:00+00:00</time>
        <ele>551.0</ele>
      </trkpt>
      <trkpt lat="46.977758" lon="8.328805">
        <time>1970-01-01T00:00:00+00:00</time>
        <ele>538.0</ele>
      </trkpt>
      <trkpt lat="46.977943" lon="8.328924">
        <time>1970-01-01T00:00:00+00:00</time>
        <ele>527.0</ele>
      </trkpt>
      <trkpt lat="46.978013" lon="8.328906">
        <time>1970-01-01T00:00:00+00:00</time>
        <ele>528.0</ele>
      </trkpt>
      <trkpt lat="46.978293" lon="8.328955">
        <time>1970-01-01T00:00:00+00:00</time>
        <ele>525.0</ele>
      </trkpt>
      <trkpt lat="46.978394" lon="8.328945">
        <time>1970-01-01T00:00:00+00:00</time>
        <ele>525.0</ele>
      </trkpt>
      <trkpt lat="46.978412" lon="8.329029">
        <time>1970-01-01T00:00:00+00:00</time>
        <ele>522.0</ele>
      </trkpt>
      <trkpt lat="46.978359" lon="8.329074">
        <time>1970-01-01T00:00:00+00:00</time>
        <ele>520.0</ele>
      </trkpt>
      <trkpt lat="46.978383" lon="8.329271">
        <time>1970-01-01T00:00:00+00:00</time>
        <ele>512.0</ele>
      </trkpt>
      <trkpt lat="46.978581" lon="8.329653">
        <time>1970-01-01T00:00:00+00:00</time>
        <ele>500.0</ele>
      </trkpt>
      <trkpt lat="46.978623" lon="8.329777">
        <time>1970-01-01T00:00:00+00:00</time>
        <ele>493.0</ele>
      </trkpt>
      <trkpt lat="46.978621" lon="8.329863">
        <time>1970-01-01T00:00:00+00:00</time>
        <ele>488.0</ele>
      </trkpt>
      <trkpt lat="46.978557" lon="8.329867">
        <time>1970-01-01T00:00:00+00:00</time>
        <ele>487.0</ele>
      </trkpt>
      <trkpt lat="46.978483" lon="8.329831">
        <time>1970-01-01T00:00:00+00:00</time>
        <ele>489.0</ele>
      </trkpt>
      <trkpt lat="46.978538" lon="8.329999">
        <time>1970-01-01T00:00:00+00:00</time>
        <ele>480.0</ele>
      </trkpt>
      <trkpt lat="46.978558" lon="8.330246">
        <time>1970-01-01T00:00:00+00:00</time>
        <ele>469.0</ele>
      </trkpt>
      <trkpt lat="46.978442" lon="8.330229">
        <time>1970-01-01T00:00:00+00:00</time>
        <ele>468.0</ele>
      </trkpt>
      <trkpt lat="46.978471" lon="8.330376">
        <time>1970-01-01T00:00:00+00:00</time>
        <ele>463.0</ele>
      </trkpt>
      <trkpt lat="46.978395" lon="8.330355">
        <time>1970-01-01T00:00:00+00:00</time>
        <ele>463.0</ele>
      </trkpt>
      <trkpt lat="46.978449" lon="8.330533">
        <time>1970-01-01T00:00:00+00:00</time>
        <ele>457.0</ele>
      </trkpt>
      <trkpt lat="46.978458" lon="8.330692">
        <time>1970-01-01T00:00:00+00:00</time>
        <ele>452.0</ele>
      </trkpt>
      <trkpt lat="46.978484" lon="8.330717">
        <time>1970-01-01T00:00:00+00:00</time>
        <ele>451.0</ele>
      </trkpt>
      <trkpt lat="46.978606" lon="8.330706">
        <time>1970-01-01T00:00:00+00:00</time>
        <ele>451.0</ele>
      </trkpt>
      <trkpt lat="46.978619" lon="8.330741">
        <time>1970-01-01T00:00:00+00:00</time>
        <ele>449.0</ele>
      </trkpt>
      <trkpt lat="46.978579" lon="8.330818">
        <time>1970-01-01T00:00:00+00:00</time>
        <ele>447.0</ele>
      </trkpt>
      <trkpt lat="46.978525" lon="8.330844">
        <time>1970-01-01T00:00:00+00:00</time>
        <ele>447.0</ele>
      </trkpt>
      <trkpt lat="46.978389" lon="8.330808">
        <time>1970-01-01T00:00:00+00:00</time>
        <ele>447.0</ele>
      </trkpt>
      <trkpt lat="46.97826" lon="8.330637">
        <time>1970-01-01T00:00:00+00:00</time>
        <ele>450.0</ele>
      </trkpt>
      <trkpt lat="46.97811" lon="8.33049">
        <time>1970-01-01T00:00:00+00:00</time>
        <ele>450.0</ele>
      </trkpt>
      <trkpt lat="46.977855" lon="8.330434">
        <time>1970-01-01T00:00:00+00:00</time>
        <ele>445.0</ele>
      </trkpt>
      <trkpt lat="46.977669" lon="8.330514">
        <time>1970-01-01T00:00:00+00:00</time>
        <ele>442.0</ele>
      </trkpt>
      <trkpt lat="46.977635" lon="8.330698">
        <time>1970-01-01T00:00:00+00:00</time>
        <ele>438.0</ele>
      </trkpt>
      <trkpt lat="46.977627" lon="8.330831">
        <time>1970-01-01T00:00:00+00:00</time>
        <ele>436.0</ele>
      </trkpt>
      <trkpt lat="46.977623" lon="8.330907">
        <time>1970-01-01T00:00:00+00:00</time>
        <ele>434.0</ele>
      </trkpt>
      <trkpt lat="46.977776" lon="8.330959">
        <time>1970-01-01T00:00:00+00:00</time>
        <ele>436.0</ele>
      </trkpt>
      <trkpt lat="46.978358" lon="8.331259">
        <time>1970-01-01T00:00:00+00:00</time>
        <ele>439.0</ele>
      </trkpt>
      <trkpt lat="46.978373" lon="8.33126">
        <time>1970-01-01T00:00:00+00:00</time>
        <ele>439.0</ele>
      </trkpt>
    </trkseg>
  </trk>
</gpx>
